User: anonymous   Login
Location: Laverne
(36.7100°N, 99.8930°W)
Time: 17:43:22
(UTC-05:00)
Language:

Iridium 32 - Orbit

View from above orbital plane
View from above orbital plane
View from above satellite
View from above satellite

Ground track
Ground track

The orbit data is extracted from the following two-line orbital elements,

1 24945U 97051B   17231.08188648  .00000035  00000-0  54587-5 0  9995
2 24945  86.3927 260.7911 0002232  94.3651 265.7800 14.34222303 43430
Epoch (UTC): 19 August 2017 01:57:54
Eccentricity: 0.0002232
inclination: 86.3927°
perigee height: 776 km
apogee height: 779 km
right ascension of ascending node: 260.7911°
argument of perigee: 94.3651°
revolutions per day: 14.34222303
mean anomaly at epoch: 265.7800°
orbit number at epoch: 4343

The dashed part of the orbit path shows where the satellite is in the earth's shadow,  

DLR